User: anonymous   Login
Location: Wawayanda State Park
(41.1833°N, 74.4333°W)
Time: 23:35:04
(UTC-04:00)
Language:

RESURS DK-1 - Orbit

View from above orbital plane
View from above orbital plane
View from above satellite
View from above satellite

Ground track
Ground track

The orbit data is extracted from the following two-line orbital elements,

1 29228U 06021A   17177.89641489 +.00000087 +00000-0 +14030-4 0  9991
2 29228 069.9363 073.3776 0006840 304.7117 055.3399 15.02165155609555
Epoch (UTC): 26 June 2017 21:30:50
Eccentricity: 0.0006840
inclination: 69.9363°
perigee height: 555 km
apogee height: 565 km
right ascension of ascending node: 73.3776°
argument of perigee: 304.7117°
revolutions per day: 15.02165155
mean anomaly at epoch: 55.3399°
orbit number at epoch: 60955

The dashed part of the orbit path shows where the satellite is in the earth's shadow,  

DLR